Weather History for Claresholm, AB

Change the Weather History Date:

Saturday, October 13, 2012

  Actual Average Record
Temperature  
Mean Temperature 56 °F -  
Max Temperature 63 °F - - ()
Min Temperature 48 °F - - ()
Degree Days  
Heating Degree Days 10    
Growing Degree Days 6 (Base 50)    
Moisture  
Dew Point 35 °F    
Average Humidity 46    
Maximum Humidity 61    
Minimum Humidity 31    
Precipitation  
Precipitation 0.00 in - - ()
Sea Level Pressure  
Sea Level Pressure 29.83 in    
Wind  
Wind Speed 10 mph ()    
Max Wind Speed 22 mph    
Max Gust Speed 28 mph    
T = Trace of Precipitation, MM = Missing Value Source: Averaged Metar Reports

Daily Weather History Graph

Daily Weather History Graph

Search for Another Location

Airport:

Trip Planner

Search our weather history database for the weather conditions in past years. The results will help you decide how hot, cold, wet, or windy it might be!

Date:

Astronomy

Oct. 13, 2012 Rise Set
Actual Time 7:54 AM MDT 6:46 PM MDT
Civil Twilight 7:21 AM MDT 7:18 PM MDT
Nautical Twilight 6:44 AM MDT 7:56 PM MDT
Astronomical Twilight 6:06 AM MDT 8:33 PM MDT
Moon 5:40 AM MDT (10/13) 5:37 PM MDT (10/13)
Length of Visible Light 11h 57m
Length of Day
10h 51m
Waning Crescent, 4% of the Moon is Illuminated
Oct 13
Waning Crescent
Oct 15
New
Oct 21
First Quarter
Oct 29
Full
Nov 6
Last Quarter

Hourly Weather History & Observations

Time (MDT) Temp. Dew Point Humidity Pressure Visibility Wind Dir Wind Speed Gust Speed Precip Events Conditions
12:00 AM 51 °F 35 °F 43% 29.73 in - WSW 5.8 mph - -  
12:00 AM 50.5 °F 35.2 °F 56% 29.73 in - WSW 5.8 mph - N/A   Unknown
1:00 AM 53.1 °F 35.1 °F 50% 29.73 in - WSW 10.4 mph - N/A   Unknown
3:00 AM 53.6 °F 36.0 °F 51% 29.73 in - WSW 9.2 mph - N/A   Unknown
4:00 AM 51.3 °F 35.6 °F 55% 29.74 in - WSW 12.7 mph - N/A   Unknown
5:00 AM 49.8 °F 35.8 °F 59% 29.76 in - SW 10.4 mph - N/A   Unknown
6:00 AM 49 °F 36 °F 50% 29.77 in - WSW 13.8 mph - -  
6:00 AM 49.1 °F 36.1 °F 61% 29.77 in - WSW 13.8 mph - N/A   Unknown
7:00 AM 51.3 °F 35.6 °F 55% 29.78 in - WSW 15.0 mph - N/A   Unknown
8:00 AM 50.4 °F 35.6 °F 57% 29.81 in - West 10.4 mph - N/A   Unknown
9:00 AM 53.1 °F 36.9 °F 54% 29.83 in - West 10.4 mph - N/A   Unknown
10:00 AM 55.0 °F 37.0 °F 51% 29.84 in - WSW 13.8 mph - N/A   Unknown
11:00 AM 56.8 °F 36.9 °F 47% 29.86 in - WSW 12.7 mph - N/A   Unknown
12:00 PM 59 °F 36 °F 31% 29.86 in - WSW 12.7 mph - -  
12:00 PM 59.2 °F 36.5 °F 43% 29.86 in - WSW 12.7 mph - N/A   Unknown
1:00 PM 61.5 °F 34.7 °F 37% 29.85 in - WSW 10.4 mph - N/A   Unknown
2:00 PM 62.6 °F 34.0 °F 34% 29.86 in - West 20.7 mph - N/A   Unknown
3:00 PM 62.6 °F 33.4 °F 34% 29.87 in - West 18.4 mph 27.6 mph N/A   Unknown
4:00 PM 63.3 °F 33.4 °F 33% 29.86 in - WSW 19.6 mph 26.5 mph N/A   Unknown
5:00 PM 61.7 °F 33.6 °F 35% 29.89 in - WSW 16.1 mph 23.0 mph N/A   Unknown
6:00 PM 61.7 °F 31.6 °F 32% 29.91 in - West 20.7 mph 27.6 mph N/A   Unknown
8:00 PM 58.1 °F 31.6 °F 37% 29.94 in - WSW 5.8 mph - N/A   Unknown
9:00 PM 55.9 °F 31.3 °F 39% 29.93 in - SW 12.7 mph 25.3 mph N/A   Unknown
10:00 PM 52.7 °F 34.0 °F 49% 29.97 in - WSW 21.9 mph - N/A   Unknown
11:00 PM 53.6 °F 36.1 °F 52% 29.98 in - SW 16.1 mph - N/A   Unknown